Weather History for Alva, OK

Change the Weather History Date:

Sunday, June 1, 2014

  Actual Average Record
Temperature  
Mean Temperature 78 °F -  
Max Temperature 91 °F 83 °F 101 °F (1953)
Min Temperature 66 °F 60 °F 45 °F (1964)
Cooling Degree Days 14    
Growing Degree Days 28 (Base 50)    
Moisture  
Dew Point 65 °F    
Average Humidity 66    
Maximum Humidity 100    
Minimum Humidity 40    
Precipitation  
Precipitation 0.57 in - - ()
Sea Level Pressure  
Sea Level Pressure 29.85 in    
Wind  
Wind Speed 14 mph (South)    
Max Wind Speed 30 mph    
Max Gust Speed 46 mph    
Visibility 10 miles    
Events Rain , Thunderstorm    
Averages and records for this station are not official NWS values.
T = Trace of Precipitation, MM = Missing Value Source: NWS Daily Summary

Daily Weather History Graph

Daily Weather History Graph

Search for Another Location

Airport:

Trip Planner

Search our weather history database for the weather conditions in past years. The results will help you decide how hot, cold, wet, or windy it might be!

Date:

Astronomy

Jun. 01, 2014 Rise Set
Actual Time 6:17 AM CDT 8:48 PM CDT
Civil Twilight 5:47 AM CDT 9:18 PM CDT
Nautical Twilight 5:09 AM CDT 9:55 PM CDT
Astronomical Twilight 4:28 AM CDT 10:37 PM CDT
Moon 9:47 AM CDT (6/1) 11:47 PM CDT (6/1)
Length of Visible Light 15h 31m
Length of Day
14h 30m
Waxing Crescent, 14% of the Moon is Illuminated
Jun 1
Waxing Crescent
Jun 5
First Quarter
Jun 12
Full
Jun 19
Last Quarter
Jun 27
New

Hourly Weather History & Observations

Time (CDT) Temp. Heat Index Dew Point Humidity Pressure Visibility Wind Dir Wind Speed Gust Speed Precip Events Conditions
12:15 AM 71.6 °F - 64.4 °F 78% 29.95 in 10.0 mi SSE 8.1 mph - N/A   Clear
12:35 AM 69.8 °F - 64.4 °F 83% 29.96 in 10.0 mi South 8.1 mph - N/A   Clear
1:15 AM 69.8 °F - 64.4 °F 83% 29.95 in 10.0 mi South 8.1 mph - N/A   Clear
1:35 AM 69.8 °F - 64.4 °F 83% 29.94 in 10.0 mi SSE 9.2 mph - N/A   Clear
1:55 AM 69.8 °F - 64.4 °F 83% 29.94 in 10.0 mi SSE 10.4 mph - N/A   Clear
2:15 AM 69.8 °F - 64.4 °F 83% 29.94 in 10.0 mi SSE 10.4 mph - N/A   Clear
2:35 AM 68.0 °F - 64.4 °F 88% 29.94 in 10.0 mi SSE 10.4 mph - N/A   Clear
2:55 AM 68.0 °F - 64.4 °F 88% 29.95 in 10.0 mi South 8.1 mph - N/A   Clear
3:15 AM 68.0 °F - 66.2 °F 94% 29.94 in 10.0 mi South 9.2 mph - N/A   Clear
3:35 AM 68.0 °F - 66.2 °F 94% 29.95 in 10.0 mi South 8.1 mph - N/A   Clear
3:55 AM 68.0 °F - 66.2 °F 94% 29.95 in 10.0 mi SSE 8.1 mph - N/A   Clear
4:15 AM 68.0 °F - 66.2 °F 94% 29.96 in 10.0 mi South 5.8 mph - N/A   Clear
4:35 AM 66.2 °F - 66.2 °F 100% 29.97 in 10.0 mi South 4.6 mph - N/A   Clear
4:55 AM 66.2 °F - 66.2 °F 100% 29.98 in 10.0 mi West 4.6 mph - N/A   Clear
5:15 AM 66.2 °F - 66.2 °F 100% 29.97 in 10.0 mi SW 5.8 mph - N/A   Clear
5:35 AM 66.2 °F - 66.2 °F 100% 29.96 in 10.0 mi South 8.1 mph - N/A   Clear
5:55 AM 66.2 °F - 66.2 °F 100% 29.94 in 10.0 mi South 9.2 mph - N/A   Clear
6:15 AM 66.2 °F - 66.2 °F 100% 29.92 in 10.0 mi South 12.7 mph - N/A   Clear
6:35 AM 68.0 °F - 66.2 °F 94% 29.86 in 10.0 mi SSE 17.3 mph 23.0 mph N/A   Clear
6:55 AM 68.0 °F - 66.2 °F 94% 29.84 in 9.0 mi South 18.4 mph 26.5 mph N/A   Clear
7:15 AM 69.8 °F - 66.2 °F 88% 29.89 in 10.0 mi South 17.3 mph 20.7 mph N/A   Clear
7:35 AM 71.6 °F - 66.2 °F 83% 29.92 in 10.0 mi SW 10.4 mph - N/A   Clear
8:15 AM 73.4 °F - 66.2 °F 78% 29.93 in 10.0 mi SSW 6.9 mph - N/A   Clear
8:35 AM 73.4 °F - 66.2 °F 78% 29.93 in 10.0 mi South 8.1 mph - N/A   Clear
8:55 AM 77.0 °F - 66.2 °F 69% 29.93 in 10.0 mi SSW 13.8 mph 18.4 mph N/A   Clear
9:15 AM 77.0 °F - 66.2 °F 69% 29.94 in 10.0 mi SSW 17.3 mph 21.9 mph N/A   Partly Cloudy
9:35 AM 80.6 °F 82.7 °F 66.2 °F 61% 29.94 in 10.0 mi South 15.0 mph - N/A   Partly Cloudy
9:55 AM 80.6 °F 82.7 °F 66.2 °F 61% 29.93 in 10.0 mi SSW 15.0 mph 21.9 mph N/A   Clear
10:15 AM 82.4 °F 84.6 °F 66.2 °F 58% 29.93 in 10.0 mi SSW 18.4 mph 24.2 mph N/A   Clear
10:35 AM 82.4 °F 84.6 °F 66.2 °F 58% 29.93 in 10.0 mi SSW 15.0 mph 25.3 mph N/A   Clear
10:55 AM 84.2 °F 85.6 °F 64.4 °F 51% 29.92 in 10.0 mi SSW 12.7 mph 23.0 mph N/A   Clear
11:15 AM 84.2 °F 85.6 °F 64.4 °F 51% 29.92 in 10.0 mi SSW 17.3 mph 25.3 mph N/A   Partly Cloudy
11:35 AM 86.0 °F 87.3 °F 64.4 °F 48% 29.91 in 10.0 mi South 18.4 mph 24.2 mph N/A   Partly Cloudy
11:55 AM 86.0 °F 87.3 °F 64.4 °F 48% 29.90 in 10.0 mi South 16.1 mph 24.2 mph N/A   Partly Cloudy
12:15 PM 86.0 °F 87.3 °F 64.4 °F 48% 29.89 in 10.0 mi South 19.6 mph 32.2 mph N/A   Partly Cloudy
12:35 PM 86.0 °F 87.3 °F 64.4 °F 48% 29.88 in 10.0 mi South 18.4 mph 28.8 mph N/A   Clear
1:15 PM 87.8 °F 89.4 °F 64.4 °F 46% 29.87 in 10.0 mi South 21.9 mph 29.9 mph N/A   Partly Cloudy
1:35 PM 87.8 °F 89.4 °F 64.4 °F 46% 29.86 in 10.0 mi South 24.2 mph 41.4 mph N/A   Clear
1:55 PM 89.6 °F 91.1 °F 64.4 °F 43% 29.85 in 10.0 mi South 20.7 mph 29.9 mph N/A   Clear
2:15 PM 89.6 °F 91.1 °F 64.4 °F 43% 29.83 in 10.0 mi SSE 25.3 mph 31.1 mph N/A   Clear
2:35 PM 89.6 °F 91.1 °F 64.4 °F 43% 29.83 in 10.0 mi South 24.2 mph 35.7 mph N/A   Clear
2:55 PM 89.6 °F 91.1 °F 64.4 °F 43% 29.82 in 10.0 mi SSE 21.9 mph 29.9 mph N/A   Clear
3:15 PM 91.4 °F 93.2 °F 64.4 °F 41% 29.81 in 10.0 mi South 25.3 mph 33.4 mph N/A   Clear
3:35 PM 91.4 °F 93.2 °F 64.4 °F 41% 29.81 in 10.0 mi South 21.9 mph 33.4 mph N/A   Clear
3:55 PM 91.4 °F 93.2 °F 64.4 °F 41% 29.79 in 10.0 mi South 23.0 mph 32.2 mph N/A   Clear
4:15 PM 89.6 °F 91.1 °F 64.4 °F 43% 29.78 in 10.0 mi South 21.9 mph 35.7 mph N/A   Partly Cloudy
4:35 PM 91.4 °F 93.2 °F 64.4 °F 41% 29.77 in 10.0 mi South 25.3 mph 34.5 mph N/A   Clear
4:55 PM 91.4 °F 93.2 °F 64.4 °F 41% 29.75 in 10.0 mi South 23.0 mph 33.4 mph N/A   Clear
5:15 PM 91.4 °F 93.2 °F 64.4 °F 41% 29.74 in 10.0 mi South 29.9 mph 34.5 mph N/A   Clear
5:35 PM 91.4 °F 93.2 °F 64.4 °F 41% 29.74 in 10.0 mi South 27.6 mph 35.7 mph N/A   Clear
5:55 PM 91.4 °F 93.2 °F 64.4 °F 41% 29.73 in 10.0 mi South 26.5 mph 36.8 mph N/A   Clear
6:15 PM 89.6 °F 90.1 °F 62.6 °F 40% 29.70 in 10.0 mi South 29.9 mph 36.8 mph N/A   Clear
6:35 PM 89.6 °F 90.1 °F 62.6 °F 40% 29.70 in 10.0 mi South 27.6 mph 35.7 mph N/A   Clear
6:55 PM 89.6 °F 90.1 °F 62.6 °F 40% 29.69 in 10.0 mi South 25.3 mph 35.7 mph N/A   Clear
7:15 PM 87.8 °F 88.5 °F 62.6 °F 43% 29.69 in 10.0 mi South 24.2 mph 34.5 mph N/A   Clear
7:35 PM 87.8 °F 88.5 °F 62.6 °F 43% 29.68 in 10.0 mi South 23.0 mph 29.9 mph N/A   Clear
7:55 PM 86.0 °F 86.6 °F 62.6 °F 45% 29.69 in 10.0 mi South 17.3 mph 27.6 mph N/A   Clear
8:15 PM 86.0 °F 86.6 °F 62.6 °F 45% 29.69 in 10.0 mi South 17.3 mph 27.6 mph N/A   Clear
8:35 PM 86.0 °F 86.6 °F 62.6 °F 45% 29.69 in 10.0 mi South 18.4 mph 24.2 mph N/A   Clear
8:55 PM 84.2 °F 85.6 °F 64.4 °F 51% 29.69 in 10.0 mi South 19.6 mph 25.3 mph N/A   Clear
9:15 PM 84.2 °F 85.0 °F 62.6 °F 48% 29.70 in 10.0 mi SSE 21.9 mph 27.6 mph N/A Thunderstorm Clear
9:35 PM 84.2 °F 85.0 °F 62.6 °F 48% 29.70 in 10.0 mi SSE 19.6 mph 27.6 mph N/A Thunderstorm Partly Cloudy
9:55 PM 80.6 °F 81.8 °F 62.6 °F 54% 29.80 in 9.0 mi NW 26.5 mph 40.3 mph N/A Thunderstorm Thunderstorm
10:15 PM 68.0 °F - 66.2 °F 94% 29.80 in 5.0 mi North 17.3 mph 46.0 mph N/A Thunderstorm Mostly Cloudy
10:35 PM 68.0 °F - 66.2 °F 94% 29.84 in 10.0 mi North 23.0 mph 34.5 mph N/A Thunderstorm Thunderstorm
10:55 PM 68.0 °F - 66.2 °F 94% 29.81 in 1.5 mi NNE 15.0 mph 34.5 mph 0.57 in Rain , Thunderstorm Heavy Thunderstorms and Rain
11:15 PM 68.0 °F - 66.2 °F 94% 29.85 in 10.0 mi ENE 5.8 mph - N/A Thunderstorm Thunderstorm
11:35 PM 68.0 °F - 68.0 °F 100% 29.85 in 10.0 mi East 13.8 mph - N/A Thunderstorm Thunderstorm
11:55 PM 68.0 °F - 66.2 °F 94% 29.87 in 10.0 mi NE 9.2 mph - N/A   Overcast